Regional Weather Roundup
Issued by NWS

Home | Current Version | Previous Version | Text Only | Print | Product List | Glossary On
Versions: 1 2 3 4 5 6 7 8 9 10 11 12 13 14 15 16 17 18 19 20 21 22 23 24 25 26 27 28 29 30 31 32 33 34 35 36 37 38 39 40 41 42 43 44 45 46 47 48 49 50
000
ASUS43 KDTX 202210
RWRMI
MICHIGAN HOURLY REGIONAL WEATHER ROUNDUP
NATIONAL WEATHER SERVICE DETROIT/PONTIAC MI
600 PM EDT WED AUG 20 2014

NOTE: "FAIR" INDICATES FEW OR NO CLOUDS BELOW 12,000 FEET WITH NO
SIGNIFICANT WEATHER AND/OR OBSTRUCTION TO VISIBILITY.

MIZ047>049-052>055-059>063-066>070-074>076-081>083-202300-
SOUTHEAST LOWER MICHIGAN

CITY           SKY/WX    TMP DP  RH WIND       PRES   REMARKS
ADRIAN         SUNNY     82  64  54 NW12      29.90S
ALMA           MOSUNNY   74  68  81 W8        29.88F
ANN ARBOR      SUNNY     82  64  54 W10G20    29.88F
BAD AXE        MOSUNNY   75  68  79 NW5       29.87S
CARO           CLOUDY    73  67  83 W8        29.88R
DETROIT CITY   MOSUNNY   83  62  49 W8G18     29.87S
DETROIT        MOSUNNY   82  63  52 SW15G24   29.88S
FLINT          MOSUNNY   82  62  50 W16G23    29.87S
GROSSE ILE     MOSUNNY   82  66  57 W12       29.86F
HILLSDALE      MOSUNNY   82  66  58 NW8       29.92S
HOWELL         MOSUNNY   78  63  59 W12G17    29.89S

CITY           SKY/WX    TMP DP  RH WIND       PRES   REMARKS
JACKSON        SUNNY     80  65  59 NW7       29.90S
LAMBERTVILLE   SUNNY     82  64  54 W9        29.89S
LANSING        MOSUNNY   79  63  57 W12       29.89F
LAPEER         FAIR      75  67  76 CALM      29.88S
MASON          MOSUNNY   79  63  57 W15       29.90S
MONROE         MOSUNNY   82  64  54 NW10      29.86S
MT. CLEMENS    PTSUNNY   80  64  59 SW7       29.85S
PONTIAC        PTSUNNY   80  63  55 W18G24    29.88S
PORT HOPE        N/A     72  67  84 E9        29.86R
PORT HURON     PTSUNNY   79  68  69 SW5       29.87S
TRI CITIES     MOSUNNY   78  66  66 SW10      29.88S
TROY           MOSUNNY   82  62  51 SW10G16   29.89F
SAGINAW HB     MOSUNNY   73  70  88 W7        29.87F
$$
MIZ043>046-050>051-056>058-064>065-071>073-077>080-202300-
SOUTHWEST LOWER MICHIGAN

CITY           SKY/WX    TMP DP  RH WIND       PRES   REMARKS
BATTLE CREEK   SUNNY     81  63  54 NW8       29.91S
BENTON HARBOR  SUNNY     82  65  56 W10       29.88S
BIG RAPIDS     MOSUNNY   75  63  66 W12G21    29.89S
COLDWATER      SUNNY     83  64  52 NW9       29.91S
FREMONT        FAIR      78  60  53 W9        29.89S
HOLLAND        SUNNY     80  65  59 W3        29.90F
GRAND RAPIDS   MOSUNNY   80  66  62 W9        29.90S
IONIA          FAIR      79  61  55 W9        29.89S
KALAMAZOO      MOSUNNY   82  63  52 NW8       29.89F
LUDINGTON      SUNNY     72  64  76 NW3       29.90F
MARSHALL       MOSUNNY   80  64  56 W9G18     29.90F
MOUNT PLEASANT PTSUNNY   77  64  64 W9        29.87S
MUSKEGON       MOSUNNY   77  63  61 VRB3      29.90S
SOUTH HAVEN    SUNNY     81  65  59 W6        29.89S
$$
MIZ016>042-202300-
NORTHERN LOWER MICHIGAN

CITY           SKY/WX    TMP DP  RH WIND       PRES   REMARKS
ALPENA         CLOUDY    71  65  81 NE9       29.89R
BEAVER ISLAND  CLOUDY    64  64  97 NW3       29.90S
BELLAIRE       CLOUDY    65  61  85 NW3       29.90S
CADILLAC       CLOUDY    67  62  83 W9        29.91S
CHARLEVOIX     CLOUDY    64  63  96 W8        29.93S
FRANKFORT      CLOUDY    69  60  74 NW6       29.91R
GAYLORD        CLOUDY    66  60  81 VRB6      29.91R
GRAYLING       CLOUDY    70  63  76 W8        29.90S
HARBOR SPRINGS FOG       63  62  96 W3        29.90S VSB 1
HOUGHTON LAKE  CLOUDY    72  62  71 NW9       29.89S
MANISTEE       SUNNY     70  61  73 NW9       29.92R
OSCODA         PTSUNNY   72  66  81 CALM      29.86R
PELLSTON       CLOUDY    65  62  90 W8        29.90R
ROGERS CITY    CLOUDY    64  64 100 N3        29.90S FOG
TRAVERSE CITY  CLOUDY    69  60  73 NW7       29.89R
$$
MIZ007>008-015-202300-
EASTERN UPPER MICHIGAN

CITY           SKY/WX    TMP DP  RH WIND       PRES   REMARKS
KINROSS        CLOUDY    64  64 100 N8        29.88S
MACKINAC ISLAN FOG       62  62 100 SW8       29.88S VSB 1/4
NEWBERRY       CLOUDY    64  61  91 NW6       29.89S
S. S. MARIE    CLOUDY    66  63  90 SW6       29.88R FOG
MUNISING         N/A     65  59  81 N3        29.90R
$$
MIZ004>006-011>014-085-202300-
CENTRAL UPPER MICHIGAN

CITY           SKY/WX    TMP DP  RH WIND       PRES   REMARKS
MANISTIQUE     CLOUDY    67  63  84 N7        29.88F
ESCANABA       CLOUDY    66  63  88 E6        29.90R
MENOMINEE      CLOUDY    70  63  78 SW8       29.88S
SAWYER-GWINN   CLOUDY    64  61  88 E5        29.91R
$$
MIZ001>003-009>011-084-202300-
WESTERN UPPER MICHIGAN

CITY           SKY/WX    TMP DP  RH WIND       PRES   REMARKS
IRON MOUNTAIN  CLOUDY    69  60  73 CALM      29.90R
HOUGHTON       CLOUDY    63  58  83 NW7       29.92R
COPPER HARBOR    N/A     56  55  97 NE3       29.91R
IRONWOOD       CLOUDY    66  61  82 N5        29.91R
$$

ABBREVIATIONS USED IN REMARKS
   TC - TEMPERATURE IN CELSIUS
  WCI - WIND CHILL INDEX
   HX - HEAT INDEX
  VSB - VISIBILITY



USA.gov is the U.S. government's official web portal to all federal, state and local government web resources and services.